Location: Misciano
(43.5000°N, 11.9500°E)
Time: 08:02:30
(UTC+00:00)

Cosmos 1934 Rocket - Pass Details

Date: 13 August 2020
Orbit: 937 x 1000 km, 83.0° (Epoch: 26 September)

Event Time Altitude Azimuth Distance (km) Brightness Sun altitude
Rises 19:40:22 0° 185° (S) 3,702 6.7 -14.0°
Reaches altitude 10° 19:42:52 10° 185° (S) 2,760 6.1 -14.3°
Maximum altitude 19:49:15 90° 92° (E) 1,007 4.0 -15.2°
Drops below altitude 10° 19:55:39 10° 8° (N) 2,774 6.8 -16.2°
Sets 19:58:11 0° 9° (N) 3,723 7.5 -16.5°
